Wind_Speed
32 33 33 33 33 33 33 34 36 37 38 38 37 36 36 35 36 36 35 35 37 39 43 46 51 63 72 76 78 78 76 73 67 62 57 52 44 36 31 24 26 42 55 55 52 53 52 53 53 52 49 51
32 32 33 33 33 33 33 34 36 37 38 38 38 37 37 36 36 36 37 36 37 38 41 44 47 54 64 71 76 77 78 78 76 72 69 62 54 45 37 31 23 26 44 56 55 54 54 52 53 55 51 48
32 33 33 33 33 33 33 34 36 37 38 39 39 39 38 37 37 37 38 38 37 39 41 43 45 49 56 64 70 73 75 78 78 77 75 70 64 54 45 38 32 23 26 45 56 57 57 54 51 54 55 49
34 34 34 34 34 34 34 34 35 36 37 39 40 40 40 39 39 39 40 40 39 39 41 42 45 46 50 57 64 68 70 73 77 78 77 74 70 63 54 45 40 35 25 29 47 57 59 57 51 50 55 51
35 35 35 36 35 35 35 35 36 36 37 38 39 39 40 40 40 40 41 42 42 41 41 43 45 46 48 52 57 63 65 67 73 78 78 75 74 70 63 54 48 44 37 25 32 50 58 59 52 47 51 53
35 35 36 36 36 35 36 36 37 37 37 38 39 39 40 40 40 41 42 43 44 44 44 44 46 47 48 50 53 57 59 61 66 73 76 75 73 74 70 64 57 51 46 36 25 35 53 59 53 45 47 52
35 36 36 37 37 36 37 37 38 38 38 39 39 40 40 41 41 42 42 43 44 45 46 46 47 48 49 50 52 55 54 55 59 64 69 72 71 72 73 70 65 59 52 45 34 26 39 54 56 47 43 48
36 36 37 37 37 37 37 38 38 39 39 39 40 40 41 41 42 43 44 44 45 46 47 47 47 48 49 51 52 55 54 51 52 57 61 65 67 68 70 71 70 66 59 52 44 32 27 41 53 51 45 45
36 36 37 37 37 37 37 38 38 38 38 38 38 39 39 40 41 42 44 45 46 47 47 47 47 47 48 50 52 55 56 51 49 51 54 57 60 62 65 68 70 69 65 59 51 42 30 30 41 49 48 46
36 37 37 36 37 37 37 38 38 37 37 37 37 37 37 38 38 39 41 43 44 46 47 48 47 47 47 48 51 54 56 54 48 48 50 52 54 55 59 62 65 68 68 66 59 51 40 31 31 39 44 45
38 38 38 37 37 38 38 38 38 38 37 37 37 37 37 37 37 37 38 39 41 42 44 45 46 46 46 47 48 51 55 55 50 46 47 49 50 50 52 56 60 63 66 68 65 58 50 39 32 32 36 41
38 39 38 38 38 38 39 39 39 38 38 38 38 38 38 37 37 37 37 36 37 39 40 42 44 45 45 45 45 47 51 53 50 46 44 45 48 48 47 50 55 58 61 66 67 63 58 49 38 32 33 37
38 39 39 39 39 39 39 39 39 39 38 38 38 38 38 38 38 37 36 35 35 36 38 40 42 44 44 44 43 44 47 50 49 45 43 42 44 47 45 46 50 54 56 61 66 66 63 57 48 38 33 34
38 39 40 40 40 40 40 40 40 40 39 38 38 37 37 38 38 37 36 34 34 35 37 39 41 43 44 44 43 42 43 46 46 44 42 40 40 43 45 44 46 49 52 56 61 64 64 61 57 47 38 34
39 40 40 40 40 40 40 40 41 40 39 38 37 37 37 37 37 37 36 35 34 34 36 38 39 41 42 43 43 41 40 42 44 42 40 39 37 40 43 43 44 47 49 52 56 60 62 62 61 56 47 38
40 40 41 41 41 40 40 40 41 41 40 38 37 37 36 36 36 36 36 36 35 35 36 37 38 39 40 41 42 42 40 40 41 40 38 38 36 37 41 42 43 45 47 49 52 56 59 60 62 61 56 47
40 41 41 41 41 41 40 40 41 41 40 39 38 37 36 36 36 36 36 36 36 36 36 36 37 37 39 40 40 41 41 40 40 39 36 36 35 35 38 42 42 44 45 47 50 53 56 58 60 62 61 56
40 41 41 41 41 41 41 41 41 41 40 39 38 37 36 36 36 36 36 36 36 36 36 36 36 36 37 39 39 40 41 41 40 39 36 34 34 34 36 41 42 43 44 45 47 51 54 55 58 60 61 60
40 41 42 42 42 42 41 41 41 41 41 40 39 37 36 36 36 36 36 36 36 36 36 35 35 36 36 37 38 39 40 41 41 39 36 34 33 33 33 38 42 43 44 45 46 48 51 53 55 58 59 59
41 41 42 42 43 42 41 41 41 41 41 40 39 38 36 36 36 36 36 36 36 36 36 35 35 35 35 36 37 38 39 40 41 39 36 34 33 32 32 35 41 43 43 44 45 46 49 51 53 56 57 56
41 41 42 43 43 43 42 42 41 41 41 40 39 38 37 36 36 36 36 36 35 35 35 35 34 34 34 35 36 37 38 39 40 39 36 34 32 32 31 31 37 42 43 43 44 45 46 49 51 54 55 54
41 42 43 43 43 43 43 43 42 41 41 40 39 38 37 37 37 37 36 36 35 34 34 34 34 33 33 34 35 36 37 38 38 38 37 34 33 32 31 30 32 39 43 44 43 45 45 47 49 51 52 52
42 43 43 43 43 43 44 43 42 42 41 40 39 38 38 37 36 36 36 36 35 33 33 33 33 32 32 33 34 35 35 36 36 37 37 35 34 32 31 29 30 34 41 43 43 44 45 46 47 48 49 49
42 43 43 43 43 43 43 43 42 42 41 40 39 38 37 37 36 36 36 36 34 33 31 31 31 31 31 32 33 33 33 34 34 35 36 36 35 32 29 28 28 30 35 40 42 44 45 46 46 46 46 47
41 42 43 43 43 43 42 42 42 41 40 40 39 37 37 37 36 35 35 35 34 32 30 30 30 30 30 30 31 31 31 31 31 32 34 35 35 33 30 27 26 27 30 34 37 41 45 45 47 47 46 46
40 41 42 43 43 43 42 41 41 41 40 40 39 37 37 37 36 35 34 35 33 31 29 28 28 29 29 29 29 30 29 29 29 29 31 33 33 33 32 30 28 27 28 30 33 35 41 45 46 47 47 47
40 40 41 42 43 43 42 41 41 41 40 39 38 37 36 36 36 34 34 34 33 31 28 27 27 27 27 27 27 27 27 27 27 27 28 30 31 31 32 33 31 30 29 30 32 32 35 41 45 46 46 47
39 40 41 42 42 43 42 41 40 40 40 39 38 36 35 36 35 34 33 34 33 30 27 26 25 26 26 26 25 25 25 25 25 25 26 27 28 29 30 32 32 31 29 29 32 33 32 35 40 45 45 44
39 39 40 41 42 43 43 41 40 40 40 39 38 36 35 35 35 34 33 32 32 30 27 25 24 24 24 24 24 23 23 23 23 23 24 24 25 26 26 27 28 28 28 26 28 31 33 32 35 41 45 44
39 39 40 41 42 43 43 42 40 40 40 39 38 37 35 35 35 34 33 32 32 30 27 25 23 23 23 23 23 22 21 21 21 22 23 24 25 25 25 25 25 25 25 24 24 26 30 32 33 36 41 44
39 39 39 41 42 42 43 42 41 40 39 39 38 37 35 35 35 35 33 32 31 30 27 25 23 23 22 22 21 21 20 20 20 21 22 23 24 25 25 25 24 24 24 24 23 23 26 29 31 33 36 42
Wind_Direction
333 332 331 329 328 327 327 326 324 322 320 320 319 318 317 315 313 311 306 301 295 287 280 273 264 256 254 254 257 260 259 256 253 252 254 254 255 254 249 236 213 214 219 218 215 216 218 218 222 227 232 236
332 330 329 328 326 325 326 325 323 321 320 319 318 317 316 315 313 310 306 302 296 291 285 279 272 265 261 259 258 261 262 261 260 258 257 256 256 256 254 249 234 214 212 214 215 215 216 218 221 223 227 234
330 329 328 327 325 325 325 324 322 321 320 319 318 317 316 314 313 310 306 302 297 292 288 284 279 272 267 265 263 263 263 262 264 265 262 260 257 256 255 253 251 246 219 210 213 214 213 216 222 221 222 230
329 328 328 326 325 325 325 323 321 320 319 318 317 316 316 314 313 310 307 303 298 293 289 286 284 280 274 271 269 267 266 264 263 266 267 265 262 257 254 254 254 258 253 217 207 211 211 213 222 221 219 224
329 328 327 326 325 325 324 322 321 320 319 317 316 315 314 314 312 310 307 303 299 294 290 286 284 284 280 276 275 273 271 268 264 264 267 268 266 261 256 254 254 257 262 248 210 206 209 212 220 223 220 219
328 328 327 325 325 325 324 322 321 320 319 317 315 315 314 313 312 310 307 303 300 296 291 287 284 283 283 280 280 279 277 273 268 265 266 268 267 264 261 256 253 255 259 262 240 209 207 212 218 221 219 219
328 328 326 325 325 325 323 322 321 320 318 317 316 315 315 314 313 311 308 305 301 298 293 289 285 283 283 283 282 283 283 278 273 269 267 268 268 265 264 261 256 254 255 259 261 235 210 210 216 218 215 215
328 327 325 324 325 325 323 322 321 319 318 317 316 316 316 316 315 313 310 307 303 300 296 291 287 284 283 283 282 283 285 283 278 274 270 269 269 266 264 263 260 256 253 255 260 257 228 210 213 217 215 212
328 327 324 324 325 324 323 321 319 317 316 315 314 315 315 315 314 312 310 308 305 302 299 295 291 287 283 282 281 281 283 284 281 278 275 271 270 268 265 264 262 258 254 253 255 258 250 222 212 215 216 213
328 326 324 324 325 324 322 320 317 315 314 313 313 314 315 315 314 312 310 308 306 303 301 298 295 291 286 283 282 281 282 283 282 280 277 274 271 269 266 264 263 261 256 253 253 254 254 241 222 215 214 212
329 327 325 325 325 323 321 318 316 314 313 313 314 315 316 316 316 314 311 309 306 304 303 301 299 297 292 287 283 282 282 283 283 281 278 275 273 269 266 264 262 261 258 254 252 252 253 249 236 222 215 211
330 328 327 326 324 322 320 318 315 314 314 315 316 317 319 319 318 317 314 311 309 307 306 304 302 300 297 292 287 283 283 283 283 281 279 276 273 270 266 263 261 260 259 256 254 252 251 251 245 234 221 214
330 328 328 326 324 322 319 317 315 314 315 315 316 318 320 321 320 319 316 313 310 309 307 305 303 301 299 297 292 286 283 284 285 282 280 277 272 269 267 263 259 259 258 256 255 253 251 250 249 243 231 219
331 329 328 327 324 322 319 317 315 314 314 315 316 318 320 321 321 319 317 314 311 309 307 305 303 302 300 298 295 289 284 284 285 283 280 277 272 268 266 262 258 256 256 255 254 254 253 250 248 247 240 228
331 330 328 327 325 322 319 316 314 313 313 313 314 317 319 320 321 320 316 313 311 310 309 307 305 303 302 299 296 292 286 284 285 284 280 277 273 266 263 262 259 255 253 253 252 252 253 251 248 247 245 237
330 329 328 327 325 322 319 316 314 312 312 312 314 316 318 320 321 320 316 313 311 310 310 309 306 304 303 301 298 294 289 284 284 284 279 276 274 266 261 259 257 255 252 250 250 250 251 251 250 248 247 243
330 328 327 327 325 323 320 316 313 312 311 311 312 314 317 319 320 320 317 313 311 310 310 309 307 305 303 302 298 295 291 285 282 283 279 274 273 268 260 257 256 254 252 249 248 248 249 250 250 250 248 246
330 328 327 327 326 324 320 317 313 311 310 310 311 313 315 317 319 320 318 314 311 309 310 310 308 306 304 303 300 296 292 287 283 281 279 274 271 269 261 255 254 254 252 249 248 247 247 248 248 250 250 248
331 329 328 327 326 325 321 317 314 312 310 309 310 311 313 315 317 319 318 315 312 309 309 309 309 307 306 304 301 297 293 289 284 281 278 274 270 269 264 256 253 253 252 250 248 247 247 247 247 249 250 250
332 330 328 327 326 324 322 318 315 312 310 309 308 309 311 313 315 317 317 315 313 310 309 309 309 308 306 305 302 299 295 290 285 281 277 273 270 268 267 260 253 252 252 251 249 248 247 247 247 248 250 250
333 331 329 328 326 324 322 319 316 313 310 308 307 307 309 311 313 314 315 315 314 311 309 308 309 308 307 304 303 300 297 291 286 282 276 271 269 268 268 264 257 252 251 251 250 250 249 249 249 249 250 250
333 332 330 328 326 325 323 320 317 314 311 308 306 306 306 308 310 312 313 314 313 312 309 308 308 308 307 305 304 302 300 294 287 282 276 270 268 267 267 267 262 254 250 250 250 251 251 251 252 252 251 251
334 332 330 328 327 325 323 321 318 315 311 308 305 304 303 305 308 310 311 312 312 312 310 309 308 308 307 306 305 305 303 298 289 282 277 270 267 268 269 270 269 262 255 251 248 249 252 253 254 255 255 253
333 332 330 328 327 325 324 321 319 315 311 308 304 301 300 301 304 307 308 309 310 311 310 309 309 308 307 307 307 306 306 303 293 284 279 273 269 270 274 276 276 273 266 260 252 247 249 252 254 256 257 256
332 332 330 329 327 325 324 321 318 315 311 306 302 299 297 298 300 303 305 306 307 309 311 310 309 308 307 307 307 307 307 306 299 289 282 277 273 273 276 278 278 278 276 272 263 251 246 248 252 254 255 256
331 332 331 328 326 325 324 321 318 315 311 306 302 298 295 295 297 300 303 304 305 307 310 311 310 308 308 308 307 308 309 309 306 297 288 282 278 276 278 280 280 280 279 278 275 263 251 247 249 253 254 254
330 331 330 328 326 324 323 321 318 315 311 306 302 297 294 293 294 297 300 301 302 304 308 310 310 309 308 308 308 309 310 310 309 305 297 289 283 280 281 284 284 283 281 279 280 277 263 251 248 250 252 253
329 330 329 327 325 324 323 321 319 316 312 307 303 297 292 290 291 293 296 298 298 300 304 307 308 308 308 308 308 309 310 310 309 307 302 295 289 286 285 286 288 287 284 280 278 278 273 263 253 249 250 252
327 329 328 326 324 324 323 322 319 316 312 309 305 298 292 289 288 289 292 293 295 296 299 302 304 305 306 306 307 308 308 308 307 305 302 299 295 292 290 288 290 290 289 285 279 276 275 271 261 253 250 250
325 327 326 325 324 323 322 321 320 316 313 310 306 300 293 288 286 287 288 290 291 293 294 297 299 301 302 303 305 306 306 306 305 304 302 299 297 295 294 292 291 292 292 290 284 278 276 272 266 260 255 251
323 324 324 323 323 322 321 321 319 316 313 311 307 301 294 288 285 284 286 287 288 290 290 292 294 295 297 299 301 303 304 304 304 303 301 299 298 296 295 294 292 291 292 291 288 282 279 275 270 265 259 255
Height
3110 3108 3106 3105 3103 3101 3098 3096 3094 3093 3091 3089 3088 3086 3084 3083 3081 3080 3079 3078 3077 3075 3074 3074 3074 3074 3074 3073 3070 3068 3068 3069 3071 3072 3073 3074 3075 3076 3078 3079 3079 3080 3082 3085 3089 3092 3094 3096 3098 3101 3104 3104
3107 3105 3103 3102 3100 3098 3095 3093 3091 3089 3088 3086 3084 3082 3080 3078 3077 3075 3074 3073 3072 3071 3069 3068 3068 3068 3067 3067 3066 3064 3063 3063 3063 3065 3066 3067 3069 3070 3072 3074 3075 3075 3076 3078 3082 3086 3089 3091 3092 3095 3098 3099
3104 3102 3100 3099 3097 3095 3092 3090 3088 3086 3084 3082 3080 3078 3076 3074 3073 3071 3070 3069 3068 3066 3065 3063 3062 3062 3062 3060 3060 3059 3059 3058 3057 3057 3058 3061 3063 3064 3066 3069 3070 3071 3071 3072 3075 3079 3083 3085 3086 3088 3092 3094
3101 3099 3097 3095 3093 3091 3089 3087 3085 3083 3081 3079 3077 3074 3072 3070 3068 3067 3065 3064 3063 3062 3060 3059 3056 3056 3055 3054 3053 3051 3053 3054 3052 3051 3051 3053 3056 3058 3060 3063 3065 3067 3067 3067 3068 3071 3075 3078 3080 3081 3085 3087
3097 3095 3093 3091 3089 3087 3085 3083 3081 3079 3077 3075 3073 3071 3068 3066 3064 3062 3060 3059 3057 3056 3055 3054 3052 3050 3049 3048 3046 3045 3045 3046 3047 3046 3045 3045 3048 3051 3053 3057 3060 3062 3063 3063 3062 3064 3067 3071 3073 3075 3077 3080
3095 3092 3090 3088 3086 3083 3081 3079 3077 3075 3073 3071 3069 3067 3064 3062 3060 3058 3056 3054 3052 3050 3049 3048 3047 3045 3043 3041 3040 3039 3039 3039 3039 3040 3040 3039 3041 3044 3046 3050 3054 3056 3058 3059 3058 3058 3060 3064 3066 3068 3070 3073
3091 3089 3087 3085 3082 3080 3078 3076 3074 3072 3070 3068 3065 3063 3060 3058 3055 3053 3051 3049 3046 3044 3043 3042 3041 3040 3038 3036 3034 3033 3033 3034 3033 3034 3035 3033 3035 3038 3040 3043 3047 3050 3053 3054 3055 3054 3054 3057 3060 3061 3064 3067
3088 3086 3084 3081 3078 3076 3074 3072 3070 3068 3066 3064 3061 3059 3056 3053 3051 3048 3046 3043 3041 3039 3037 3036 3035 3035 3034 3032 3028 3026 3027 3029 3028 3028 3029 3029 3028 3031 3034 3036 3039 3043 3046 3048 3050 3050 3050 3051 3054 3055 3057 3060
3085 3083 3080 3078 3075 3073 3071 3069 3067 3065 3063 3061 3059 3056 3053 3050 3047 3044 3041 3038 3036 3033 3031 3030 3029 3029 3028 3026 3023 3020 3019 3022 3024 3023 3022 3023 3023 3025 3027 3030 3032 3036 3040 3042 3044 3046 3046 3046 3048 3049 3051 3054
3082 3080 3077 3074 3071 3069 3068 3066 3064 3062 3060 3058 3056 3053 3051 3048 3045 3041 3038 3034 3031 3028 3026 3024 3023 3022 3021 3020 3018 3015 3013 3014 3018 3018 3017 3017 3018 3019 3021 3024 3026 3029 3033 3036 3039 3041 3042 3043 3043 3044 3046 3048
3078 3076 3074 3071 3068 3066 3064 3062 3060 3059 3057 3054 3052 3050 3047 3044 3041 3038 3035 3031 3028 3024 3022 3019 3018 3016 3015 3014 3013 3011 3008 3007 3010 3012 3012 3011 3011 3013 3015 3018 3020 3022 3026 3029 3032 3035 3037 3039 3039 3040 3041 3043
3075 3073 3071 3068 3065 3063 3060 3058 3056 3054 3052 3049 3047 3045 3042 3040 3037 3034 3031 3028 3024 3021 3018 3015 3013 3012 3010 3008 3008 3007 3004 3002 3003 3006 3007 3006 3006 3007 3009 3012 3014 3016 3019 3021 3025 3028 3031 3033 3035 3035 3036 3037
3072 3070 3067 3065 3062 3059 3057 3054 3052 3050 3047 3044 3042 3040 3037 3035 3033 3031 3028 3025 3021 3018 3015 3012 3009 3007 3005 3003 3003 3002 3000 2997 2997 2999 3001 3002 3002 3002 3003 3006 3008 3010 3012 3015 3017 3021 3025 3027 3029 3031 3032 3032
3069 3066 3064 3061 3058 3056 3053 3050 3048 3045 3043 3040 3038 3035 3033 3031 3029 3027 3024 3021 3018 3015 3011 3008 3006 3003 3001 2999 2997 2997 2996 2993 2992 2993 2995 2996 2997 2997 2998 3000 3002 3004 3007 3009 3011 3014 3018 3021 3024 3026 3028 3029
3065 3063 3060 3058 3055 3052 3050 3047 3044 3042 3039 3037 3034 3031 3029 3027 3025 3023 3020 3017 3014 3011 3008 3005 3002 3000 2997 2995 2993 2992 2992 2990 2988 2988 2989 2990 2992 2993 2993 2995 2996 2998 3001 3004 3006 3008 3011 3015 3018 3020 3023 3025
3062 3060 3057 3054 3052 3049 3046 3043 3041 3038 3035 3033 3030 3027 3025 3023 3021 3019 3016 3013 3011 3008 3004 3001 2998 2996 2993 2991 2989 2987 2987 2987 2984 2983 2985 2985 2986 2988 2989 2990 2992 2993 2995 2998 3000 3003 3005 3008 3011 3014 3017 3020
3059 3057 3054 3051 3048 3045 3042 3039 3037 3034 3031 3028 3026 3023 3021 3019 3017 3015 3012 3010 3007 3004 3001 2998 2995 2992 2990 2987 2985 2983 2982 2982 2981 2979 2980 2981 2981 2983 2984 2986 2987 2988 2990 2992 2995 2997 2999 3002 3005 3008 3011 3014
3056 3053 3050 3047 3044 3041 3038 3035 3032 3030 3027 3024 3022 3019 3017 3015 3012 3010 3008 3006 3003 3000 2997 2994 2991 2988 2986 2984 2981 2980 2977 2976 2977 2975 2975 2977 2978 2978 2980 2981 2982 2983 2984 2986 2989 2991 2993 2996 2999 3002 3005 3008
3052 3049 3046 3043 3040 3037 3034 3031 3028 3025 3022 3020 3018 3015 3013 3011 3008 3006 3004 3002 2999 2997 2994 2991 2988 2985 2982 2980 2978 2976 2974 2972 2971 2971 2971 2972 2973 2974 2975 2976 2977 2978 2979 2981 2983 2985 2988 2990 2993 2996 2999 3002
3048 3045 3042 3039 3036 3033 3030 3027 3024 3021 3018 3016 3013 3011 3009 3007 3005 3003 3001 2998 2996 2993 2990 2987 2984 2982 2979 2977 2975 2972 2971 2969 2967 2967 2967 2967 2969 2969 2970 2971 2971 2972 2973 2975 2978 2980 2982 2984 2987 2990 2993 2996
3044 3041 3038 3035 3032 3029 3026 3023 3020 3017 3014 3012 3009 3007 3005 3003 3001 2999 2997 2995 2992 2989 2986 2984 2981 2978 2976 2973 2972 2969 2967 2966 2964 2963 2963 2963 2964 2965 2965 2965 2965 2966 2968 2970 2972 2975 2977 2979 2981 2984 2987 2989
3040 3037 3034 3031 3028 3025 3022 3019 3016 3013 3010 3007 3005 3003 3001 2999 2998 2995 2993 2991 2988 2986 2983 2981 2978 2975 2973 2970 2968 2966 2964 2963 2961 2960 2959 2959 2960 2962 2962 2961 2961 2961 2962 2965 2967 2970 2972 2974 2976 2978 2981 2983
3036 3033 3031 3027 3024 3021 3018 3015 3012 3009 3006 3003 3001 2999 2997 2995 2994 2992 2990 2988 2985 2983 2980 2978 2975 2972 2970 2967 2965 2963 2961 2959 2958 2957 2956 2956 2957 2958 2960 2959 2958 2958 2958 2960 2963 2965 2967 2969 2971 2973 2975 2977
3033 3030 3027 3024 3021 3018 3015 3011 3008 3005 3002 2999 2998 2996 2993 2992 2990 2989 2987 2984 2982 2980 2977 2975 2972 2970 2967 2964 2962 2960 2958 2956 2954 2954 2953 2953 2954 2955 2957 2958 2957 2956 2955 2956 2958 2960 2963 2965 2967 2968 2970 2972
3030 3026 3023 3020 3017 3014 3011 3008 3004 3002 2998 2996 2994 2992 2990 2988 2987 2985 2983 2981 2979 2976 2974 2972 2969 2967 2964 2961 2959 2957 2954 2952 2951 2950 2950 2950 2950 2951 2952 2954 2955 2954 2953 2952 2953 2956 2959 2961 2962 2963 2965 2967
3026 3023 3019 3015 3013 3010 3007 3004 3001 2998 2995 2992 2990 2988 2986 2984 2982 2981 2980 2978 2976 2973 2971 2968 2966 2964 2961 2959 2956 2954 2952 2950 2948 2947 2947 2947 2947 2947 2947 2948 2950 2951 2950 2949 2949 2951 2953 2956 2956 2958 2960 2962
3022 3019 3015 3011 3008 3005 3003 3000 2997 2994 2991 2987 2985 2984 2982 2980 2978 2977 2976 2974 2972 2970 2967 2965 2963 2961 2959 2956 2954 2952 2949 2947 2946 2945 2944 2944 2944 2944 2944 2943 2944 2946 2947 2947 2946 2946 2948 2950 2951 2953 2955 2957
3018 3014 3011 3007 3004 3001 2998 2996 2993 2989 2986 2983 2981 2979 2978 2976 2974 2973 2972 2971 2969 2967 2964 2962 2961 2959 2957 2954 2952 2950 2947 2945 2944 2943 2942 2942 2942 2942 2942 2940 2940 2940 2942 2944 2943 2942 2943 2945 2947 2948 2950 2953
3014 3010 3007 3003 3000 2997 2994 2991 2989 2985 2982 2979 2977 2975 2973 2972 2970 2969 2969 2967 2966 2963 2961 2959 2958 2956 2955 2952 2950 2948 2946 2944 2942 2941 2940 2940 2939 2939 2939 2939 2938 2937 2938 2940 2940 2940 2940 2940 2942 2943 2945 2948
3009 3006 3003 2999 2996 2993 2989 2987 2984 2981 2977 2975 2972 2970 2969 2967 2966 2965 2964 2964 2962 2960 2958 2956 2955 2954 2952 2950 2948 2946 2944 2942 2941 2940 2939 2938 2937 2937 2937 2937 2937 2935 2935 2936 2937 2937 2937 2937 2938 2939 2940 2942
3005 3001 2998 2995 2992 2989 2985 2982 2980 2977 2973 2971 2968 2966 2964 2963 2961 2960 2960 2959 2958 2956 2955 2953 2952 2951 2950 2948 2946 2944 2942 2941 2939 2938 2937 2936 2935 2935 2934 2935 2935 2934 2934 2933 2933 2934 2934 2934 2935 2936 2936 2937